Voltar ao catálogo

SL-8 R/B

AtivoLEO
NORAD 8459·ROCKET BODY·🇷🇺 Russia

Lançado Nov 28, 1975 de Plesetsk Cosmodrome

Loading…

Próximas Passagens (próximas 24 horas)

TLE

AtualizadoSource: Space-Track

Época: Sep 13, 2026, 20:44 UTC

1  8459U 75112B   26256.86432420  .00000131  00000-0  51652-4 0  9990
2  8459  74.0617  32.7275 0014657  75.2407 285.0371 14.38278344658927

Acompanhe SL-8 R/B em tempo real com AllMySat

Download on the App Store